Weather in Cazaclia

Moldova     46°00′30″N   28°39′44″E
temp.,
°C
wind,
m/s
gust,
m/s
humid.,
%
clouds,
%
prec.,
mm/h
press.,
hPa
HPBL,
m
6 may, thu
thu600:00+11s7147453 0.0 1010405
03:00+10sse51176100 0.0 1009284
06:00+10sse4982100 0.0 1009226
09:00+14sw456584 0.0 1010441
12:00+17nw3458100 0.0 1011904
15:00+16n566490 0.1 1012955
18:00+17n445480 0.0 10131195
21:00+13e226895 0.0 101413
7 may, fri
fri700:00+11ese337758 0.0 101532
03:00+11se3585100 0.0 101577
06:00+9se4993100 0.0 1015173
09:00+15sse6976100 0.1 1015568
12:00+20s7956100 0.0 10131118
15:00+22s81147100 0.0 10111700
18:00+18sse9147093 0.6 1008576
21:00+16s71484100 1.1 1008293
8 may, sat
sat800:00+15s51186100 0.7 1008269
03:00+13w129487 1.8 100926
06:00+11n71386100 0.1 1011541
09:00+11nnw91369100 0.1 1015705
12:00+11nnw81254100 0.0 1017870
15:00+14n8940100 0.0 10181436
18:00+13n6943100 0.0 10181842
21:00+10nnw495387 0.0 1021185
9 may, sun
sun900:00+7nnw49652 0.0 1023178
03:00+6nnw36650 0.0 102496
06:00+5nnw33710 0.0 102635
09:00+11n46510 0.0 1027800
12:00+15nnw46395 0.0 10271807
15:00+17nnw453380 0.0 10272515
18:00+17n233188 0.0 10262325
21:00+13e45458 0.0 102861
10 may, mon
mon1000:00+9sse35685 0.0 102880
03:00+8s34785 0.0 102964
06:00+8sw11755 0.0 102810
09:00+14se34525 0.0 1029507
12:00+17se55395 0.0 10291699
15:00+18se44365 0.0 10271866
18:00+17se54391 0.0 10261614
21:00+11se59620 0.0 1027189